CW4629 Weather Reports


time (UTC)temp
C
wind
direction
speed
KPH
gust
KPH
rain 1hr
cm
rain 24hr
cm
rain mn
cm
humidity
%
barometer
mb
20260903150113 23 360 0.0 1.6 0.00 0.00 0.00 25 1016.7
20260903145114 22 360 0.0 0.0 0.00 0.00 0.00 27 1016.8
20260903144115 20 360 0.0 0.0 0.00 0.00 0.00 28 1016.7
20260903143114 18 270 0.0 0.0 0.00 0.00 0.00 29 1016.7
20260903142114 17 270 0.0 0.0 0.00 0.00 0.00 32 1016.7
20260903141115 17 260 3.2 4.8 0.00 0.00 0.00 36 1016.7
20260903140129 16 337 0.0 0.0 0.00 0.00 0.00 40 1016.5
20260903135128 16 337 0.0 0.0 0.00 0.00 0.00 41 1016.6
20260903134128 15 337 0.0 0.0 0.00 0.00 0.00 41 1016.5
20260903133115 15 337 0.0 0.0 0.00 0.00 0.00 42 1016.4
20260903133012 15 337 0.0 0.0 0.00 0.00 0.00 41 1016.3
20260903132112 15 337 0.0 0.0 0.00 0.00 0.00 40 1016.2
20260903131116 16 337 0.0 0.0 0.00 0.00 0.00 35 1016.2
20260903130212 16 337 0.0 1.6 0.00 0.00 0.00 31 1016.0
20260903130129 16 337 1.6 3.2 0.00 0.00 0.00 32 1016.1
20260903125229 16 302 6.4 8.0 0.00 0.00 0.00 35 1016.1
20260903124214 16 315 0.0 3.2 0.00 0.00 0.00 37 1016.0
20260903122328 16 292 0.0 0.0 0.00 0.00 0.00 34 1016.0
20260903120313 16 22 0.0 1.6 0.00 0.00 0.00 36 1016.0
20260903114330 16 337 0.0 0.0 0.00 0.00 0.00 35 1016.0
20260903113414 17 337 0.0 0.0 0.00 0.00 0.00 31 1015.9
20260903112414 17 337 0.0 1.6 0.00 0.00 0.00 30 1015.9
20260903111512 17 22 0.0 0.0 0.00 0.00 0.00 29 1015.8
20260903105515 17 36 1.6 6.4 0.00 0.00 0.00 29 1015.8
20260903104531 17 321 3.2 4.8 0.00 0.00 0.00 29 1015.7
20260903103613 18 360 0.0 0.0 0.00 0.00 0.00 30 1015.7
20260903102712 18 22 6.4 8.0 0.00 0.00 0.00 29 1015.6
20260903102613 18 346 3.2 6.4 0.00 0.00 0.00 29 1015.7
20260903101711 18 295 4.8 6.4 0.00 0.00 0.00 26 1015.7
20260903100713 18 337 3.2 4.8 0.00 0.00 0.00 29 1015.8
20260903095730 18 360 1.6 3.2 0.00 0.00 0.00 28 1015.7
20260903094814 18 337 1.6 4.8 0.00 0.00 0.00 28 1015.6
20260903093814 19 225 0.0 0.0 0.00 0.00 0.00 28 1015.6
20260903092831 20 225 0.0 0.0 0.00 0.00 0.00 25 1015.5
20260903091915 21 180 0.0 0.0 0.00 0.00 0.00 21 1015.4
20260903091814 21 180 0.0 0.0 0.00 0.00 0.00 21 1015.5
20260903090913 22 157 0.0 0.0 0.00 0.00 0.00 18 1015.4
20260903085914 22 150 1.6 4.8 0.00 0.00 0.00 17 1015.3
20260903084914 23 157 0.0 1.6 0.00 0.00 0.00 15 1015.3
20260903084012 23 112 0.0 1.6 0.00 0.00 0.00 15 1015.5
20260903083929 23 112 0.0 3.2 0.00 0.00 0.00 14 1015.5
20260903081015 23 85 4.8 6.4 0.00 0.00 0.00 17 1015.4
20260903080013 22 90 4.8 4.8 0.00 0.00 0.00 19 1015.3
20260903075030 22 225 0.0 0.0 0.00 0.00 0.00 18 1015.4
20260903074114 23 74 6.4 9.7 0.00 0.00 0.00 16 1015.3
20260903073212 23 238 4.8 6.4 0.00 0.00 0.00 17 1015.3
20260903072213 23 90 3.2 3.2 0.00 0.00 0.00 14 1015.2
20260903071230 24 80 3.2 4.8 0.00 0.00 0.00 16 1015.2
20260903070314 24 90 3.2 4.8 0.00 0.00 0.00 14 1015.2
20260903065329 24 68 6.4 8.0 0.00 0.00 0.00 15 1015.0
20260903064413 23 61 3.2 8.0 0.00 0.00 0.00 16 1015.1
20260903063412 24 121 0.0 3.2 0.00 0.00 0.00 15 1014.9
20260903062414 24 67 3.2 6.4 0.00 0.00 0.00 16 1015.0
20260903060427 25 47 4.8 6.4 0.00 0.00 0.00 15 1014.7
20260903055413 25 67 3.2 4.8 0.00 0.00 0.00 15 1014.9
20260903055314 25 67 3.2 4.8 0.00 0.00 0.00 15 1014.9
20260903054333 24 90 3.2 4.8 0.00 0.00 0.00 15 1014.8
20260903053430 23 142 1.6 8.0 0.00 0.00 0.00 18 1014.8
20260903052530 23 270 0.0 0.0 0.00 0.00 0.00 18 1014.7
20260903051515 23 273 1.6 4.8 0.00 0.00 0.00 18 1014.7
20260903050515 24 63 3.2 4.8 0.00 0.00 0.00 17 1014.7
20260903045613 24 27 0.0 4.8 0.00 0.00 0.00 17 1014.6
20260903044615 25 247 0.0 0.0 0.00 0.00 0.00 16 1014.6
20260903043629 26 234 0.0 0.0 0.00 0.00 0.00 13 1014.5
20260903042716 26 292 4.8 6.4 0.00 0.00 0.00 14 1014.6
20260903041715 26 107 0.0 0.0 0.00 0.00 0.00 12 1014.4
20260903041631 26 112 0.0 0.0 0.00 0.00 0.00 13 1014.3
20260903035716 26 292 0.0 0.0 0.00 0.00 0.00 15 1014.1
20260903034730 26 292 0.0 1.6 0.00 0.00 0.00 13 1013.9
20260903032913 27 292 4.8 6.4 0.00 0.00 0.00 11 1013.9
20260903031914 28 202 0.0 3.2 0.00 0.00 0.00 10 1013.8
20260903025929 28 246 4.8 6.4 0.00 0.00 0.00 8 1013.7
20260903023913 29 240 6.4 8.0 0.00 0.00 0.00 9 1013.6
20260903022916 30 224 8.0 11.3 0.00 0.00 0.00 8 1013.5
20260903021929 30 232 9.7 12.9 0.00 0.00 0.00 8 1013.4
20260903021013 30 239 9.7 17.7 0.00 0.00 0.00 8 1013.3
20260903015016 31 245 6.4 11.3 0.00 0.00 0.00 7 1013.1
20260903013114 32 240 8.0 20.9 0.00 0.00 0.00 7 1013.3
20260903012017 32 224 17.7 25.7 0.00 0.00 0.00 7 1013.3
20260903011114 32 241 17.7 29.0 0.00 0.00 0.00 7 1013.2
20260903010213 32 224 16.1 27.4 0.00 0.00 0.00 6 1013.2
20260903005215 32 239 9.7 12.9 0.00 0.00 0.00 7 1013.1
20260903004216 32 214 14.5 22.5 0.00 0.00 0.00 7 1013.2
20260903002228 33 241 9.7 16.1 0.00 0.00 0.00 8 1013.1
20260903001316 33 240 17.7 29.0 0.00 0.00 0.00 6 1013.1
20260903000317 33 227 24.1 37.0 0.00 0.00 0.00 7 1013.3
20260902235413 33 215 9.7 22.5 0.00 0.00 0.00 7 1013.3
20260902234431 32 237 14.5 22.5 0.00 0.00 0.00 8 1013.3
20260902233414 33 261 12.9 27.4 0.00 0.00 0.00 7 1013.4
20260902231513 33 238 16.1 20.9 0.00 0.00 0.00 7 1013.5
20260902230530 33 251 11.3 20.9 0.00 0.00 0.00 6 1013.8
20260902225617 33 233 17.7 32.2 0.00 0.00 0.00 7 1013.7
20260902224629 33 226 12.9 17.7 0.00 0.00 0.00 6 1013.7
20260902222731 33 217 19.3 32.2 0.00 0.00 0.00 7 1014.0
20260902221729 33 233 9.7 14.5 0.00 0.00 0.00 6 1014.1
20260902220729 33 215 19.3 29.0 0.00 0.00 0.00 7 1014.4
20260902215815 33 237 14.5 20.9 0.00 0.00 0.00 9 1014.4
20260902214833 32 216 11.3 17.7 0.00 0.00 0.00 9 1014.4
20260902213829 32 226 17.7 29.0 0.00 0.00 0.00 9 1014.7
20260902212814 32 235 19.3 32.2 0.00 0.00 0.00 11 1014.9
20260902210913 33 175 14.5 22.5 0.00 0.00 0.00 11 1014.9
20260902203914 33 218 19.3 29.0 0.00 0.00 0.00 11 1015.6
20260902203816 33 220 14.5 22.5 0.00 0.00 0.00 10 1015.4
20260902202912 32 217 12.9 27.4 0.00 0.00 0.00 12 1015.4
20260902201915 32 243 14.5 25.7 0.00 0.00 0.00 11 1015.5
20260902200928 32 250 9.7 19.3 0.00 0.00 0.00 11 1015.7
20260902195913 32 232 12.9 17.7 0.00 0.00 0.00 13 1015.9
20260902195814 32 198 11.3 20.9 0.00 0.00 0.00 13 1015.9
20260902193828 32 229 16.1 24.1 0.00 0.00 0.00 14 1016.4
20260902192830 32 214 14.5 22.5 0.00 0.00 0.00 14 1016.6
20260902191915 31 223 11.3 17.7 0.00 0.00 0.00 14 1016.4
20260902191012 31 187 12.9 22.5 0.00 0.00 0.00 15 1016.6
20260902190029 31 219 14.5 24.1 0.00 0.00 0.00 14 1016.8
20260902185012 31 302 4.8 6.4 0.00 0.00 0.00 16 1016.7
20260902184013 31 242 9.7 14.5 0.00 0.00 0.00 17 1017.0
20260902183012 30 227 9.7 12.9 0.00 0.00 0.00 17 1017.1
20260902182011 31 252 8.0 12.9 0.00 0.00 0.00 18 1017.3
20260902181016 30 242 6.4 12.9 0.00 0.00 0.00 19 1017.3
20260902180930 30 229 11.3 17.7 0.00 0.00 0.00 19 1017.4
20260902174113 30 219 8.0 14.5 0.00 0.00 0.00 21 1017.6
20260902174014 30 222 6.4 14.5 0.00 0.00 0.00 21 1017.6
20260902173030 31 235 6.4 11.3 0.00 0.00 0.00 22 1017.5
20260902172112 31 253 3.2 8.0 0.00 0.00 0.00 23 1017.7
20260902171115 31 337 0.0 1.6 0.00 0.00 0.00 23 1017.6
20260902170129 31 22 0.0 1.6 0.00 0.00 0.00 24 1017.5
20260902165115 31 45 1.6 3.2 0.00 0.00 0.00 27 1017.4
20260902164112 29 80 0.0 0.0 0.00 0.00 0.00 29 1017.7
20260902163129 30 184 4.8 6.4 0.00 0.00 0.00 30 1017.5
20260902163013 30 180 0.0 3.2 0.00 0.00 0.00 31 1017.5
20260902162014 29 202 0.0 1.6 0.00 0.00 0.00 31 1017.5
20260902161013 28 112 0.0 0.0 0.00 0.00 0.00 33 1017.7
20260902160013 27 67 0.0 3.2 0.00 0.00 0.00 35 1017.6
20260902155028 26 270 3.2 3.2 0.00 0.00 0.00 36 1017.6
20260902154113 26 276 0.0 1.6 0.00 0.00 0.00 38 1017.5
20260902153211 27 292 0.0 3.2 0.00 0.00 0.00 37 1017.7
20260902152214 26 247 0.0 0.0 0.00 0.00 0.00 38 1017.6
20260902151213 25 202 0.0 0.0 0.00 0.00 0.00 41 1017.6